APK88 DNPO-DNMM

Flight info

Callsign APK88
Flight time N/A
Altitude 32000
Route AKDIT2S AKDIT DCT BEN DCT OK UL433 EDGOT EDGOT1N
Aircraft B77W/H-SDE1E2E3FGHIJ2J3J4J5M1RWXY/LB1D1

Departure

Time 2026-04-26 20:14
Airport Port Harcourt International Airport (DNPO)

Arrival

Time N/A
Airport Murtala Muhammed International Airport (DNMM)
Time Latitude Longitude Altitude Speed Heading
2026-04-26 19:59 5.00726 6.94852 71 ft 0 kts 25°
2026-04-26 20:09 5.00731 6.94855 68 ft 3 kts 25°
2026-04-26 20:09 5.00762 6.94869 70 ft 7 kts 20°
2026-04-26 20:09 5.00805 6.94846 73 ft 8 kts 303°
2026-04-26 20:10 5.00795 6.94790 69 ft 9 kts 231°
2026-04-26 20:10 5.00740 6.94751 70 ft 10 kts 209°
2026-04-26 20:10 5.00683 6.94720 73 ft 10 kts 208°
2026-04-26 20:10 5.00621 6.94687 75 ft 10 kts 208°
2026-04-26 20:11 5.00561 6.94654 72 ft 10 kts 208°
2026-04-26 20:11 5.00497 6.94621 71 ft 11 kts 207°
2026-04-26 20:11 5.00425 6.94582 68 ft 12 kts 208°
2026-04-26 20:12 5.00297 6.94476 69 ft 13 kts 265°
2026-04-26 20:12 5.00312 6.94419 69 ft 13 kts 291°
2026-04-26 20:12 5.00351 6.94350 67 ft 9 kts 313°
2026-04-26 20:12 5.00406 6.94353 69 ft 3 kts 26°
2026-04-26 20:13 5.00415 6.94357 70 ft 11 kts 26°
2026-04-26 20:13 5.00731 6.94525 76 ft 96 kts 28°
2026-04-26 20:13 5.01561 6.94965 78 ft 170 kts 28°
2026-04-26 20:13 5.02683 6.95555 657 ft 181 kts 27°
2026-04-26 20:14 5.03840 6.96129 1432 ft 188 kts 22°
2026-04-26 20:14 5.05148 6.96179 2060 ft 201 kts 339°
2026-04-26 20:14 5.06261 6.95228 2356 ft 228 kts 300°
2026-04-26 20:14 5.06993 6.93706 2660 ft 255 kts 295°
2026-04-26 20:15 5.07809 6.92077 3359 ft 268 kts 298°
2026-04-26 20:15 5.08764 6.90434 4189 ft 275 kts 302°
2026-04-26 20:15 5.09833 6.88815 5095 ft 281 kts 306°
2026-04-26 20:15 5.10993 6.87224 6003 ft 285 kts 308°
2026-04-26 20:16 5.12231 6.85642 6837 ft 290 kts 310°
2026-04-26 20:16 5.13511 6.84088 7671 ft 295 kts 311°
2026-04-26 20:16 5.14856 6.82512 8504 ft 299 kts 312°
2026-04-26 20:16 5.16238 6.80931 9348 ft 304 kts 313°
2026-04-26 20:17 5.17657 6.79334 10133 ft 309 kts 313°
2026-04-26 20:17 5.19137 6.77685 10545 ft 331 kts 313°
2026-04-26 20:17 5.20757 6.75895 10748 ft 360 kts 313°
2026-04-26 20:17 5.22486 6.73991 11280 ft 375 kts 313°
2026-04-26 20:18 5.24261 6.72039 12097 ft 383 kts 313°
2026-04-26 20:18 5.26067 6.70056 13115 ft 386 kts 313°
2026-04-26 20:18 5.27887 6.68059 14082 ft 390 kts 313°
2026-04-26 20:18 5.29727 6.66042 14916 ft 395 kts 313°
2026-04-26 20:19 5.31594 6.63994 15738 ft 401 kts 313°
2026-04-26 20:19 5.33491 6.61914 16568 ft 406 kts 312°
2026-04-26 20:19 5.35411 6.59808 17423 ft 412 kts 312°
2026-04-26 20:19 5.37363 6.57667 18235 ft 417 kts 312°
2026-04-26 20:20 5.39328 6.55512 18971 ft 421 kts 312°
2026-04-26 20:20 5.41314 6.53333 19738 ft 425 kts 312°
2026-04-26 20:20 5.43319 6.51134 20493 ft 428 kts 313°
2026-04-26 20:20 5.45343 6.48914 21223 ft 433 kts 313°
2026-04-26 20:21 5.47389 6.46669 21937 ft 438 kts 313°
2026-04-26 20:21 5.49428 6.44432 22682 ft 441 kts 313°
2026-04-26 20:21 5.51534 6.42119 23418 ft 445 kts 313°
2026-04-26 20:21 5.53634 6.39814 24032 ft 449 kts 313°
2026-04-26 20:22 5.55718 6.37526 24643 ft 451 kts 313°
2026-04-26 20:22 5.57844 6.35192 25248 ft 454 kts 313°
2026-04-26 20:22 5.59981 6.32842 25851 ft 457 kts 313°
2026-04-26 20:22 5.62116 6.30463 26463 ft 460 kts 312°
2026-04-26 20:23 5.64254 6.28058 27095 ft 462 kts 312°
2026-04-26 20:23 5.66386 6.25653 27900 ft 460 kts 312°
2026-04-26 20:23 5.68505 6.23262 28788 ft 456 kts 312°
2026-04-26 20:23 5.70613 6.20887 29577 ft 456 kts 312°
2026-04-26 20:24 5.72725 6.18508 29926 ft 456 kts 312°
2026-04-26 20:24 5.76937 6.13769 29914 ft 454 kts 312°
2026-04-26 20:25 5.81149 6.09032 29913 ft 454 kts 312°
2026-04-26 20:25 5.85357 6.04299 29913 ft 454 kts 312°
2026-04-26 20:26 5.89544 5.99588 29915 ft 455 kts 312°
2026-04-26 20:26 5.93764 5.94837 29910 ft 455 kts 312°
2026-04-26 20:27 5.97976 5.90095 29911 ft 455 kts 312°
2026-04-26 20:27 6.02192 5.85347 29913 ft 455 kts 312°
2026-04-26 20:28 6.06404 5.80603 29913 ft 455 kts 312°
2026-04-26 20:28 6.10620 5.75852 29914 ft 455 kts 312°
2026-04-26 20:29 6.14832 5.71104 29913 ft 455 kts 312°
2026-04-26 20:29 6.19045 5.66354 29913 ft 455 kts 312°
2026-04-26 20:30 6.23227 5.61637 29916 ft 455 kts 312°
2026-04-26 20:30 6.27208 5.56700 29907 ft 455 kts 302°
2026-04-26 20:31 6.29846 5.51119 29905 ft 455 kts 288°
2026-04-26 20:31 6.31628 5.45006 29918 ft 456 kts 286°
2026-04-26 20:32 6.33347 5.38875 29913 ft 456 kts 286°
2026-04-26 20:32 6.35098 5.32745 29916 ft 456 kts 286°
2026-04-26 20:33 6.36868 5.26630 29913 ft 456 kts 286°
2026-04-26 20:33 6.38645 5.20508 29915 ft 456 kts 286°
2026-04-26 20:34 6.40421 5.14387 29915 ft 456 kts 286°
2026-04-26 20:34 6.42194 5.08266 29910 ft 456 kts 286°
2026-04-26 20:35 6.43957 5.02177 29914 ft 456 kts 286°
2026-04-26 20:35 6.45687 4.96197 29911 ft 455 kts 286°
2026-04-26 20:36 6.47454 4.90086 29911 ft 455 kts 286°
2026-04-26 20:36 6.49221 4.83976 29915 ft 455 kts 286°
2026-04-26 20:37 6.50836 4.77828 29919 ft 454 kts 279°
2026-04-26 20:37 6.51705 4.71579 29899 ft 442 kts 277°
2026-04-26 20:37 6.52103 4.68537 29776 ft 437 kts 277°
2026-04-26 20:38 6.52513 4.65511 29298 ft 436 kts 278°
2026-04-26 20:38 6.52931 4.62504 28855 ft 432 kts 278°
2026-04-26 20:38 6.53349 4.59517 28389 ft 429 kts 278°
2026-04-26 20:38 6.53752 4.56561 27939 ft 425 kts 278°
2026-04-26 20:39 6.54149 4.53615 27483 ft 423 kts 277°
2026-04-26 20:39 6.54412 4.51653 27200 ft 435 kts 277°
2026-04-26 20:39 6.54956 4.47604 26574 ft 441 kts 278°
2026-04-26 20:39 6.55366 4.44563 26094 ft 437 kts 278°
2026-04-26 20:40 6.55778 4.41549 25623 ft 433 kts 278°
2026-04-26 20:40 6.56433 4.38616 25135 ft 429 kts 288°
2026-04-26 20:40 6.57410 4.35794 24684 ft 425 kts 290°
2026-04-26 20:40 6.58454 4.33017 24210 ft 423 kts 291°
2026-04-26 20:41 6.59504 4.30260 23758 ft 421 kts 291°
2026-04-26 20:41 6.60536 4.27509 23252 ft 420 kts 290°
2026-04-26 20:41 6.61603 4.24801 22736 ft 409 kts 298°
2026-04-26 20:41 6.62799 4.22265 22245 ft 394 kts 299°
2026-04-26 20:42 6.63874 4.19793 21833 ft 377 kts 296°
2026-04-26 20:42 6.64776 4.17371 21447 ft 362 kts 294°
2026-04-26 20:42 6.65579 4.15021 21053 ft 348 kts 294°
2026-04-26 20:42 6.66325 4.12744 20660 ft 337 kts 294°
2026-04-26 20:43 6.67035 4.10531 20314 ft 330 kts 294°
2026-04-26 20:43 6.67755 4.08334 19971 ft 331 kts 295°
2026-04-26 20:43 6.68443 4.06287 19652 ft 344 kts 295°
2026-04-26 20:43 6.69235 4.03966 19252 ft 361 kts 294°
2026-04-26 20:44 6.70054 4.01576 18816 ft 359 kts 294°
2026-04-26 20:44 6.70864 3.99230 18402 ft 349 kts 295°
2026-04-26 20:44 6.71657 3.96968 17973 ft 336 kts 295°
2026-04-26 20:44 6.72426 3.94795 17549 ft 324 kts 296°
2026-04-26 20:45 6.73171 3.92697 17172 ft 314 kts 296°
2026-04-26 20:45 6.73897 3.90646 16820 ft 310 kts 296°
2026-04-26 20:45 6.74622 3.88586 16483 ft 316 kts 296°
2026-04-26 20:45 6.75375 3.86430 16152 ft 340 kts 295°
2026-04-26 20:46 6.76169 3.84127 15735 ft 353 kts 294°
2026-04-26 20:46 6.76955 3.81802 15313 ft 347 kts 294°
2026-04-26 20:46 6.77737 3.79542 14911 ft 336 kts 295°
2026-04-26 20:46 6.78516 3.77368 14518 ft 325 kts 296°
2026-04-26 20:47 6.79276 3.75290 14153 ft 316 kts 296°
2026-04-26 20:47 6.79781 3.73893 13903 ft 314 kts 295°
2026-04-26 20:47 6.80568 3.71647 13510 ft 320 kts 295°
2026-04-26 20:47 6.81320 3.69518 13331 ft 322 kts 295°
2026-04-26 20:48 6.82078 3.67425 13154 ft 312 kts 298°
2026-04-26 20:48 6.83154 3.65663 13054 ft 290 kts 324°
2026-04-26 20:48 6.84810 3.64396 12754 ft 310 kts 341°
2026-04-26 20:48 6.86846 3.63705 12360 ft 308 kts 358°
2026-04-26 20:49 6.88939 3.63356 11967 ft 300 kts
2026-04-26 20:49 6.90956 3.63042 11611 ft 288 kts 358°
2026-04-26 20:49 6.92804 3.62312 11297 ft 280 kts 340°
2026-04-26 20:49 6.94488 3.61309 11045 ft 295 kts 339°
2026-04-26 20:50 6.96311 3.60215 10700 ft 310 kts 339°
2026-04-26 20:50 6.98162 3.59108 10312 ft 308 kts 339°
2026-04-26 20:50 6.99776 3.57756 9885 ft 306 kts 319°
2026-04-26 20:50 7.01085 3.56141 9598 ft 292 kts 319°
2026-04-26 20:51 7.02111 3.54404 9118 ft 288 kts 292°
2026-04-26 20:51 7.02217 3.52421 8950 ft 284 kts 262°
2026-04-26 20:51 7.01516 3.50625 8779 ft 271 kts 237°
2026-04-26 20:51 7.00249 3.49286 8314 ft 262 kts 216°
2026-04-26 20:52 6.98710 3.48318 7795 ft 258 kts 212°
2026-04-26 20:52 6.97169 3.47417 7289 ft 253 kts 212°
2026-04-26 20:52 6.95658 3.46558 6859 ft 245 kts 211°
2026-04-26 20:52 6.94192 3.45746 6465 ft 236 kts 212°
2026-04-26 20:53 6.92765 3.44962 6088 ft 231 kts 212°
2026-04-26 20:53 6.91361 3.44197 5735 ft 228 kts 212°
2026-04-26 20:53 6.89982 3.43448 5373 ft 223 kts 213°
2026-04-26 20:53 6.88660 3.42720 5001 ft 215 kts 215°
2026-04-26 20:54 6.87386 3.42005 4641 ft 204 kts 216°
2026-04-26 20:54 6.86183 3.41322 4295 ft 194 kts 217°
2026-04-26 20:54 6.85004 3.40644 4021 ft 197 kts 217°
2026-04-26 20:54 6.83806 3.39962 3705 ft 198 kts 216°
2026-04-26 20:55 6.82783 3.39134 3538 ft 185 kts 254°
2026-04-26 20:55 6.82644 3.38715 3486 ft 189 kts 271°
2026-04-26 20:55 6.82651 3.36398 3459 ft 205 kts 276°
2026-04-26 20:55 6.82623 3.34960 3446 ft 206 kts 276°
2026-04-26 20:56 6.82607 3.33524 3431 ft 205 kts 274°
2026-04-26 20:56 6.82235 3.32149 3424 ft 206 kts 242°
2026-04-26 20:56 6.81591 3.31443 3435 ft 210 kts 221°
2026-04-26 20:57 6.77113 3.31032 2792 ft 190 kts 187°
2026-04-26 20:57 6.75831 3.31051 2591 ft 179 kts 188°
2026-04-26 20:57 6.74613 3.31064 2510 ft 174 kts 188°
2026-04-26 20:58 6.73401 3.31082 2470 ft 173 kts 188°
2026-04-26 20:58 6.72224 3.31108 2440 ft 165 kts 189°
2026-04-26 20:58 6.71099 3.31126 2420 ft 157 kts 189°
2026-04-26 20:58 6.70027 3.31142 2189 ft 152 kts 190°
2026-04-26 20:59 6.68969 3.31145 2028 ft 151 kts 192°
2026-04-26 20:59 6.67931 3.31199 1932 ft 147 kts 175°
2026-04-26 20:59 6.66897 3.31241 1741 ft 148 kts 180°
2026-04-26 20:59 6.65865 3.31237 1519 ft 153 kts 180°
2026-04-26 21:00 6.64811 3.31256 1340 ft 152 kts 178°
2026-04-26 21:00 6.63765 3.31263 1135 ft 147 kts 180°
2026-04-26 21:00 6.62762 3.31264 852 ft 146 kts 179°
2026-04-26 21:00 6.61763 3.31282 691 ft 143 kts 179°
2026-04-26 21:01 6.60750 3.31289 481 ft 148 kts 179°
2026-04-26 21:01 6.59702 3.31303 308 ft 151 kts 179°
2026-04-26 21:01 6.58655 3.31318 124 ft 148 kts 179°
2026-04-26 21:01 6.57694 3.31329 62 ft 125 kts 179°
2026-04-26 21:02 6.57168 3.31336 65 ft 99 kts 179°